DW8024 Cheadle Hulme UK current weather conditions

sailwx.info

Wind from 028 at 11 knots gusting 25

Air temperature 6.1° C
Dewpoint 3.1° C

Last reported at 2019-Nov-14 16:05 UTC.
Time now 2019-Nov-14 16:30 UTC

Location: N 53°22' W 002°12'.
View on Google Maps.

See reports from other nearby stations

  
Tides and Currents Weather Stations Pressure Air Temp Water Temp Dewpoint Dewpoint Depression Visibility Wind Speed Wind Dir Waves Ship Positions
date/time (UTC)wind fromknots sea level pressurealtimeterstation pressurevisibilityair tempwater tempwave heightnotes
2019-Nov-14 16:05 028 11 gusting 25 6.1
2019-Nov-14 16:00 031 13 gusting 25 6.1
2019-Nov-14 15:55 029 11 gusting 22 6.1
2019-Nov-14 15:50 027 10 gusting 22 6.1
2019-Nov-14 15:45 028 11 gusting 21 6.1
2019-Nov-14 15:40 029 10 gusting 20 6.1
2019-Nov-14 15:35 030 9 gusting 24 6.1
2019-Nov-14 15:30 029 11 gusting 25 6.1
2019-Nov-14 15:20 028 12 gusting 23 6.7
2019-Nov-14 15:15 028 10 gusting 23 6.7
2019-Nov-14 15:10 023 9 gusting 16 6.7
2019-Nov-14 15:05 018 8 gusting 17 6.7
2019-Nov-14 15:00 021 9 gusting 19 6.7
2019-Nov-14 14:55 029 12 gusting 26 6.7
2019-Nov-14 14:50 033 13 gusting 26 6.7
2019-Nov-14 14:45 032 11 gusting 25 6.7
2019-Nov-14 14:40 029 11 gusting 25 6.7
2019-Nov-14 14:35 029 10 gusting 21 6.7
2019-Nov-14 14:30 029 9 gusting 20 6.7
2019-Nov-14 14:25 027 10 gusting 20 6.7
2019-Nov-14 14:20 031 10 gusting 19 6.7
2019-Nov-14 14:15 035 11 gusting 21 6.7
2019-Nov-14 14:10 032 12 gusting 23 6.7
2019-Nov-14 14:05 032 13 gusting 23 6.7
2019-Nov-14 14:00 030 13 gusting 24 6.7
2019-Nov-14 13:55 025 13 gusting 24 6.7
2019-Nov-14 13:50 024 12 gusting 22 6.7
2019-Nov-14 13:40 026 12 gusting 28 6.7
2019-Nov-14 13:35 024 11 gusting 21 6.7
2019-Nov-14 13:30 024 10 gusting 21 6.7
2019-Nov-14 13:25 025 12 gusting 23 6.7
2019-Nov-14 13:20 027 11 gusting 23 6.7
2019-Nov-14 13:15 031 10 gusting 18 6.7
2019-Nov-14 13:10 033 12 gusting 25 6.7
2019-Nov-14 13:05 027 11 gusting 25 6.7
2019-Nov-14 13:00 018 9 gusting 24 6.7
2019-Nov-14 12:55 018 9 gusting 18 6.7
2019-Nov-14 12:40 018 10 gusting 19 6.7
2019-Nov-14 12:35 019 9 gusting 19 6.7
2019-Nov-14 12:30 018 9 gusting 18 6.7
2019-Nov-14 12:25 020 9 gusting 18 6.7
2019-Nov-14 12:20 017 11 gusting 19 6.7
2019-Nov-14 12:15 016 10 gusting 19 6.7
2019-Nov-14 12:10 018 9 gusting 17 6.7
2019-Nov-14 12:05 021 8 gusting 22 6.7
2019-Nov-14 12:00 022 7 gusting 22 6.7
2019-Nov-14 11:55 022 9 gusting 19 6.7
2019-Nov-14 11:50 021 10 gusting 22 6.7
2019-Nov-14 11:45 017 11 gusting 22 6.7
2019-Nov-14 11:40 020 11 gusting 19 6.7
2019-Nov-14 11:35 029 10 gusting 20 6.1
2019-Nov-14 11:30 026 11 gusting 20 6.1
2019-Nov-14 11:25 026 12 gusting 22 6.1
2019-Nov-14 11:20 031 12 gusting 22 6.1
2019-Nov-14 11:15 028 11 gusting 22 6.1
2019-Nov-14 11:10 026 9 gusting 20 6.1
2019-Nov-14 11:05 023 11 gusting 20 6.1
2019-Nov-14 11:00 021 10 gusting 20 6.7
2019-Nov-14 10:55 025 9 gusting 15 6.7
2019-Nov-14 10:50 032 13 gusting 24 6.7
2019-Nov-14 10:45 034 13 gusting 24 6.7
2019-Nov-14 10:40 029 11 gusting 23 6.7
2019-Nov-14 10:35 031 11 gusting 18 6.7
2019-Nov-14 10:30 035 12 gusting 22 6.7
2019-Nov-14 10:25 036 13 gusting 22 6.7
2019-Nov-14 10:20 038 13 gusting 26 6.7
2019-Nov-14 10:15 034 13 gusting 26 6.7
2019-Nov-14 10:10 029 11 gusting 24 6.7
2019-Nov-14 10:05 029 10 gusting 18 6.7
2019-Nov-14 10:00 027 11 gusting 22 6.7
2019-Nov-14 09:55 025 10 gusting 22 6.7
2019-Nov-14 09:50 029 9 gusting 24 6.7
2019-Nov-14 09:45 026 9 gusting 24 6.7
2019-Nov-14 09:40 024 8 gusting 19 6.7
2019-Nov-14 09:35 028 9 gusting 16 6.1
2019-Nov-14 09:30 025 10 gusting 19 6.1
2019-Nov-14 09:25 027 10 gusting 19 6.1
2019-Nov-14 09:20 029 9 gusting 16 6.1
2019-Nov-14 09:15 031 9 gusting 19 6.1
2019-Nov-14 09:10 031 10 gusting 22 6.1
2019-Nov-14 09:05 026 11 gusting 25 6.1
2019-Nov-14 09:00 025 10 gusting 25 6.1
2019-Nov-14 08:55 025 9 gusting 19 6.1
2019-Nov-14 08:50 029 11 gusting 19 6.1
2019-Nov-14 08:45 034 12 gusting 20 6.1
2019-Nov-14 08:40 034 11 gusting 25 6.1
2019-Nov-14 08:35 033 11 gusting 25 6.1
2019-Nov-14 08:30 032 11 gusting 20 6.1
2019-Nov-14 08:25 029 10 gusting 20 6.1
2019-Nov-14 08:20 027 8 gusting 16 6.1
2019-Nov-14 08:15 024 8 gusting 14 6.1
2019-Nov-14 08:10 028 8 gusting 16 6.1
2019-Nov-14 08:05 030 8 gusting 17 6.1
2019-Nov-14 08:00 031 10 gusting 22 6.1
2019-Nov-14 07:55 034 10 gusting 22 6.1
2019-Nov-14 07:50 034 8 gusting 16 5.6
2019-Nov-14 07:45 032 8 gusting 15 5.6
2019-Nov-14 07:40 030 8 gusting 15 5.6
2019-Nov-14 07:35 033 8 gusting 16 5.6
2019-Nov-14 07:30 036 8 gusting 16 5.6
2019-Nov-14 07:25 033 8 gusting 15 5.6
2019-Nov-14 07:20 032 8 gusting 14 5.6
2019-Nov-14 07:15 032 7 gusting 13 5.6
2019-Nov-14 07:10 030 6 gusting 13 5.6
2019-Nov-14 07:05 034 8 gusting 22 5.6
2019-Nov-14 07:00 037 10 gusting 22 5.6
2019-Nov-14 06:55 041 9 gusting 19 5.6
2019-Nov-14 06:50 037 8 gusting 19 5.6
2019-Nov-14 06:45 029 9 gusting 19 5.6
2019-Nov-14 06:40 030 9 gusting 19 6.1
2019-Nov-14 06:35 033 9 gusting 18 6.1
2019-Nov-14 06:30 033 8 gusting 17 5.6
2019-Nov-14 06:25 034 7 gusting 13 5.6
2019-Nov-14 06:20 036 7 gusting 15 5.6
2019-Nov-14 06:15 032 7 gusting 15 5.6
2019-Nov-14 06:10 032 7 gusting 15 5.6
2019-Nov-14 06:05 036 7 gusting 16 5.6
2019-Nov-14 06:00 035 8 gusting 16 5.6
2019-Nov-14 05:55 035 9 gusting 16 5.6
2019-Nov-14 05:50 036 10 gusting 16 5.6
2019-Nov-14 05:45 033 9 gusting 16 5.6
2019-Nov-14 05:40 025 6 gusting 14 5.6
2019-Nov-14 05:35 025 6 gusting 12 5.6
2019-Nov-14 05:30 023 5 gusting 11 5.6
2019-Nov-14 05:25 021 4 gusting 10 5.6
2019-Nov-14 05:20 019 5 gusting 9 5.6
2019-Nov-14 05:15 017 5 gusting 9 5.6
2019-Nov-14 05:10 018 5 gusting 9 5.6
2019-Nov-14 05:05 016 5 gusting 9 5.0
2019-Nov-14 05:00 022 5 gusting 8 5.0
2019-Nov-14 04:55 027 5 gusting 8 5.0
2019-Nov-14 04:50 030 5 gusting 9 5.0
2019-Nov-14 04:45 031 6 gusting 9 5.0
2019-Nov-14 04:40 034 6 gusting 14 5.0
2019-Nov-14 04:35 034 7 gusting 14 5.0
2019-Nov-14 04:30 036 8 gusting 16 5.0
2019-Nov-14 04:25 036 7 gusting 16 5.0
2019-Nov-14 04:20 035 6 gusting 13 5.0
2019-Nov-14 04:15 039 7 gusting 13 5.0
2019-Nov-14 04:10 038 7 gusting 14 5.0
2019-Nov-14 04:05 038 6 gusting 14 5.0
2019-Nov-14 04:00 045 6 gusting 11 5.0
2019-Nov-14 03:55 043 6 gusting 13 5.0
2019-Nov-14 03:50 037 7 gusting 13 5.0
2019-Nov-14 03:45 037 6 gusting 13 5.0
2019-Nov-14 03:40 040 7 gusting 13 5.0
2019-Nov-14 03:35 040 8 gusting 14 5.0
2019-Nov-14 03:30 036 7 gusting 14 5.0
2019-Nov-14 03:25 035 8 gusting 15 5.0
2019-Nov-14 03:20 036 9 gusting 15 5.0
2019-Nov-14 03:15 036 7 gusting 14 5.0
2019-Nov-14 03:10 036 6 gusting 14 5.0
2019-Nov-14 03:05 036 7 gusting 14 5.0
2019-Nov-14 03:00 035 7 gusting 14 4.4
2019-Nov-14 02:55 029 6 gusting 13 4.4
2019-Nov-14 02:50 028 5 gusting 12 4.4
2019-Nov-14 02:45 030 5 gusting 12 4.4
2019-Nov-14 02:40 031 4 gusting 10 4.4
2019-Nov-14 02:35 032 5 gusting 10 4.4
2019-Nov-14 02:30 033 6 gusting 10 4.4
2019-Nov-14 02:25 036 7 gusting 10 4.4
2019-Nov-14 02:20 041 6 gusting 12 4.4
2019-Nov-14 02:15 041 6 gusting 13 4.4
2019-Nov-14 02:10 040 7 gusting 13 4.4
2019-Nov-14 02:05 039 6 gusting 12 4.4
2019-Nov-14 02:00 039 6 gusting 10 4.4
2019-Nov-14 01:55 040 6 gusting 12 4.4
2019-Nov-14 01:50 038 6 gusting 12 4.4
2019-Nov-14 01:45 038 6 gusting 11 4.4
2019-Nov-14 01:40 039 7 gusting 11 4.4
2019-Nov-14 01:35 044 7 gusting 11 4.4
2019-Nov-14 01:30 046 6 gusting 11 4.4
2019-Nov-14 01:25 050 6 gusting 13 4.4
2019-Nov-14 01:20 055 7 gusting 15 4.4
2019-Nov-14 01:15 055 8 gusting 15 4.4
2019-Nov-14 01:10 055 8 gusting 14 4.4
2019-Nov-14 01:05 058 7 gusting 14 4.4
2019-Nov-14 01:00 059 8 gusting 16 5.0
2019-Nov-14 00:55 059 8 gusting 16 5.0
2019-Nov-14 00:50 060 9 gusting 15 5.0
2019-Nov-14 00:45 063 8 gusting 13 4.4
2019-Nov-14 00:40 060 8 gusting 14 4.4
2019-Nov-14 00:35 055 9 gusting 14 4.4
2019-Nov-14 00:30 053 8 gusting 14 4.4
2019-Nov-14 00:25 052 6 gusting 13 4.4
2019-Nov-14 00:20 054 6 gusting 13 4.4
2019-Nov-14 00:15 052 6 gusting 12 4.4
2019-Nov-14 00:10 055 6 gusting 12 4.4
2019-Nov-14 00:05 057 6 gusting 11 4.4
2019-Nov-14 00:00 060 6 gusting 12 4.4
2019-Nov-13 23:55 065 5 gusting 12 4.4
2019-Nov-13 23:50 062 4 gusting 9 4.4
2019-Nov-13 23:45 065 6 gusting 10 4.4
2019-Nov-13 23:40 066 6 gusting 10 4.4
2019-Nov-13 23:35 068 5 gusting 11 4.4
2019-Nov-13 23:30 069 4 gusting 11 4.4
2019-Nov-13 23:25 063 4 gusting 9 4.4
2019-Nov-13 23:20 056 4 gusting 8 4.4
2019-Nov-13 23:15 058 4 gusting 8 4.4
2019-Nov-13 23:10 067 5 gusting 11 4.4
2019-Nov-13 23:05 070 4 gusting 11 4.4
2019-Nov-13 23:00 077 3 gusting 8 4.4
2019-Nov-13 22:55 083 4 gusting 8 4.4
2019-Nov-13 22:50 083 5 gusting 9 4.4
2019-Nov-13 22:45 080 5 gusting 9 4.4
2019-Nov-13 22:40 076 5 gusting 12 4.4
2019-Nov-13 22:35 070 6 gusting 12 5.0
2019-Nov-13 22:30 070 6 gusting 12 5.0
2019-Nov-13 22:25 078 6 gusting 14 5.0
2019-Nov-13 22:20 077 6 gusting 14 5.0
2019-Nov-13 22:15 076 6 gusting 12 5.0
2019-Nov-13 22:10 079 6 gusting 14 5.0
2019-Nov-13 22:05 085 6 gusting 14 5.0
2019-Nov-13 22:00 090 6 gusting 14 5.0
2019-Nov-13 21:55 090 6 gusting 14 5.0
2019-Nov-13 21:50 093 6 gusting 12 4.4
2019-Nov-13 21:45 097 5 gusting 12 4.4
2019-Nov-13 21:40 090 3 gusting 8 4.4
2019-Nov-13 21:35 085 3 gusting 8 4.4
2019-Nov-13 21:30 082 4 gusting 9 4.4
2019-Nov-13 21:25 081 4 gusting 9 4.4
2019-Nov-13 21:20 082 4 gusting 8 4.4
2019-Nov-13 21:15 083 4 gusting 11 4.4
2019-Nov-13 21:10 083 4 gusting 11 4.4
2019-Nov-13 21:05 084 4 gusting 11 4.4
2019-Nov-13 21:00 084 5 gusting 11 4.4
2019-Nov-13 20:55 079 5 gusting 13 4.4
2019-Nov-13 20:50 082 5 gusting 13 4.4
2019-Nov-13 20:45 091 5 gusting 12 4.4
2019-Nov-13 20:40 100 4 gusting 11 4.4
2019-Nov-13 20:35 106 3 gusting 9 4.4
2019-Nov-13 20:30 106 3 gusting 7 4.4
2019-Nov-13 20:25 102 3 gusting 7 4.4
2019-Nov-13 20:20 094 3 gusting 7 3.9
2019-Nov-13 20:15 087 2 gusting 6 3.9
2019-Nov-13 20:10 086 1 gusting 5 3.9
2019-Nov-13 20:05 101 2 gusting 5 3.9
2019-Nov-13 20:00 105 2 gusting 5 3.9
2019-Nov-13 19:55 100 1 gusting 4 3.9
2019-Nov-13 19:50 101 2 gusting 6 3.9
2019-Nov-13 19:45 104 3 gusting 6 3.9
2019-Nov-13 19:40 113 3 gusting 7 3.9
2019-Nov-13 19:35 120 4 gusting 8 4.4
2019-Nov-13 19:30 116 3 gusting 8 3.9
2019-Nov-13 19:25 107 2 gusting 6 3.9
2019-Nov-13 19:20 098 3 gusting 7 3.9
2019-Nov-13 19:15 093 4 gusting 7 3.9
2019-Nov-13 19:10 085 3 gusting 7 3.9
2019-Nov-13 19:05 078 2 gusting 6 3.9
2019-Nov-13 19:00 082 2 gusting 4 3.9
2019-Nov-13 18:55 079 2 gusting 4 3.9
2019-Nov-13 18:50 077 2 gusting 4 3.9
2019-Nov-13 18:45 083 1 gusting 5 3.9
2019-Nov-13 18:40 090 1 gusting 5 3.9
2019-Nov-13 18:35 092 1 gusting 6 3.9
2019-Nov-13 18:30 080 2 gusting 6 3.9
2019-Nov-13 18:25 070 2 gusting 6 4.4
2019-Nov-13 18:20 071 2 gusting 6 4.4
2019-Nov-13 18:15 077 2 gusting 6 3.9
2019-Nov-13 18:10 087 1 gusting 5 3.9
2019-Nov-13 18:05 086 2 gusting 5 4.4
2019-Nov-13 18:00 081 2 gusting 4 4.4
2019-Nov-13 17:55 090 2 gusting 4 4.4
2019-Nov-13 17:50 095 1 gusting 4 4.4
2019-Nov-13 17:45 093 2 gusting 6 4.4
2019-Nov-13 17:40 091 2 gusting 6 4.4
2019-Nov-13 17:35 092 1 gusting 5 4.4
2019-Nov-13 17:30 108 1 gusting 3 4.4
2019-Nov-13 17:25 116 1 gusting 3 4.4
2019-Nov-13 17:20 121 1 gusting 4 4.4
2019-Nov-13 17:15 124 2 gusting 4 4.4
2019-Nov-13 17:10 120 2 gusting 6 4.4
2019-Nov-13 17:05 120 2 gusting 6 5.0
2019-Nov-13 17:00 121 3 gusting 6 5.0
2019-Nov-13 16:55 118 2 gusting 6 5.0
2019-Nov-13 16:50 115 1 gusting 4 5.0
2019-Nov-13 16:45 113 1 gusting 3 5.0
2019-Nov-13 16:40 107 2 gusting 6 5.6
2019-Nov-13 16:35 103 2 gusting 6 5.6
2019-Nov-13 16:30 102 2 gusting 6 5.6
2019-Nov-13 16:25 099 2 gusting 6 5.6
2019-Nov-13 16:20 098 3 gusting 6 5.6
2019-Nov-13 16:15 094 3 gusting 8 5.6
2019-Nov-13 16:10 094 3 gusting 8 6.1
2019-Nov-13 16:05 096 2 gusting 6 6.1
2019-Nov-13 16:00 098 2 gusting 5 6.1
2019-Nov-13 15:55 099 2 gusting 5 6.7
2019-Nov-13 15:50 102 2 gusting 6 6.7
2019-Nov-13 15:45 113 2 gusting 6 6.7
2019-Nov-13 15:40 120 1 gusting 4 6.7
2019-Nov-13 15:35 127 2 gusting 5 7.2
2019-Nov-13 15:30 138 2 gusting 6 7.2
2019-Nov-13 15:25 144 2 gusting 6 7.2
2019-Nov-13 15:20 146 2 gusting 5 7.2
2019-Nov-13 15:15 143 1 gusting 5 7.8
2019-Nov-13 15:10 138 2 gusting 3 7.8
2019-Nov-13 15:05 136 2 gusting 3 7.8
2019-Nov-13 15:00 136 2 gusting 4 8.3
2019-Nov-13 14:55 132 2 gusting 4 8.3
2019-Nov-13 14:50 129 3 gusting 5 8.3
2019-Nov-13 14:45 137 3 gusting 5 8.9
2019-Nov-13 14:40 145 2 gusting 5 8.9
2019-Nov-13 14:35 139 3 gusting 6 8.9
2019-Nov-13 14:30 137 3 gusting 6 8.9
2019-Nov-13 14:25 142 3 gusting 6 8.9
2019-Nov-13 14:20 142 2 gusting 6 8.9
2019-Nov-13 14:15 139 2 gusting 5 8.9
2019-Nov-13 14:10 147 3 gusting 7 8.3
2019-Nov-13 14:05 145 3 gusting 7 8.3
2019-Nov-13 14:00 154 4 gusting 6 8.3
2019-Nov-13 13:55 166 4 gusting 6 7.8
2019-Nov-13 13:50 170 3 gusting 6 7.8
2019-Nov-13 13:45 171 3 gusting 6 8.3
2019-Nov-13 13:40 169 3 gusting 6 8.3
2019-Nov-13 13:35 164 3 gusting 6 7.8
2019-Nov-13 13:30 157 3 gusting 6 7.8
2019-Nov-13 13:25 152 2 gusting 6 7.8
2019-Nov-13 13:20 143 2 gusting 5 7.2
2019-Nov-13 13:15 134 2 gusting 4 7.2
2019-Nov-13 13:10 135 2 gusting 5 6.7
2019-Nov-13 13:05 138 2 gusting 5 6.7
2019-Nov-13 13:00 141 2 gusting 4 6.7
2019-Nov-13 12:55 150 1 gusting 3 6.7
2019-Nov-13 12:50 161 2 gusting 6 6.7
2019-Nov-13 12:45 165 2 gusting 6 6.7
2019-Nov-13 12:40 165 2 gusting 4 6.7
2019-Nov-13 12:35 159 2 gusting 4 6.7
2019-Nov-13 12:30 152 2 gusting 4 6.7
2019-Nov-13 12:25 152 2 gusting 5 6.7
2019-Nov-13 12:20 151 2 gusting 5 6.7
2019-Nov-13 12:15 142 2 gusting 4 6.1
2019-Nov-13 12:10 150 2 gusting 4 6.1
2019-Nov-13 12:05 162 2 gusting 4 6.1
2019-Nov-13 12:00 156 2 gusting 4 6.1
2019-Nov-13 11:55 152 1 gusting 4 6.1
2019-Nov-13 11:50 155 1 gusting 3 6.1
2019-Nov-13 11:45 149 2 gusting 5 6.1
2019-Nov-13 11:40 146 2 gusting 5 6.1
2019-Nov-13 11:35 151 2 gusting 5 6.1
2019-Nov-13 11:30 162 2 gusting 4 6.1
2019-Nov-13 11:25 162 2 gusting 4 6.1
2019-Nov-13 11:20 155 2 gusting 4 6.1
2019-Nov-13 11:15 153 2 gusting 4 6.1
2019-Nov-13 11:10 156 1 gusting 3 5.6
2019-Nov-13 11:05 170 1 gusting 3 5.6
2019-Nov-13 11:00 175 1 gusting 3 5.6
2019-Nov-13 10:55 174 1 gusting 3 5.6
2019-Nov-13 10:50 170 2 gusting 3 5.6
2019-Nov-13 10:45 170 2 gusting 4 5.6
2019-Nov-13 10:40 168 1 gusting 4 5.6
2019-Nov-13 10:35 164 1 gusting 3 5.6
2019-Nov-13 10:30 168 2 gusting 4 5.6
2019-Nov-13 10:25 175 1 gusting 4 5.6
2019-Nov-13 10:20 179 2 gusting 5 5.6
2019-Nov-13 10:15 177 2 gusting 5 5.6
2019-Nov-13 10:10 177 2 gusting 5 5.6
2019-Nov-13 10:05 171 2 gusting 4 5.6
2019-Nov-13 10:00 170 2 gusting 4 5.0
2019-Nov-13 09:55 178 1 gusting 4 5.0
2019-Nov-13 09:50 178 2 gusting 4 5.0
2019-Nov-13 09:45 173 2 gusting 3 5.0
2019-Nov-13 09:40 167 1 gusting 3 5.0
2019-Nov-13 09:35 173 1 gusting 2 5.0
2019-Nov-13 09:30 188 1 gusting 2 5.0
2019-Nov-13 09:25 202 1 gusting 2 5.0
2019-Nov-13 09:20 217 1 gusting 2 5.0
2019-Nov-13 09:15 236 1 gusting 3 5.0
2019-Nov-13 09:10 239 1 gusting 3 5.0
2019-Nov-13 09:05 233 0 gusting 2 5.0
2019-Nov-13 09:00 239 1 gusting 6 5.0
2019-Nov-13 08:55 241 1 gusting 6 5.0
2019-Nov-13 08:50 239 1 gusting 3 5.0
2019-Nov-13 08:45 250 1 gusting 6 5.0
2019-Nov-13 08:40 248 1 gusting 6 5.0
2019-Nov-13 08:35 236 1 gusting 7 5.0
2019-Nov-13 08:30 238 2 gusting 7 5.0
2019-Nov-13 08:25 228 1 gusting 7 5.0
2019-Nov-13 08:20 214 1 gusting 7 4.4
2019-Nov-13 08:15 230 2 gusting 4 4.4
2019-Nov-13 08:10 246 1 gusting 5 4.4
2019-Nov-13 08:05 249 1 gusting 5 4.4
2019-Nov-13 08:00 249 1 gusting 6 4.4
2019-Nov-13 07:55 248 1 gusting 6 4.4
2019-Nov-13 07:50 233 1 gusting 5 4.4
2019-Nov-13 07:45 221 2 gusting 6 4.4
2019-Nov-13 07:40 220 2 gusting 6 4.4
2019-Nov-13 07:35 222 1 gusting 6 4.4
2019-Nov-13 07:30 221 1 gusting 6 4.4
2019-Nov-13 07:25 221 1 gusting 6 4.4
2019-Nov-13 07:20 226 1 gusting 6 4.4
2019-Nov-13 07:15 206 2 gusting 6 4.4
2019-Nov-13 07:10 201 2 gusting 6 4.4
2019-Nov-13 07:05 202 2 gusting 6 4.4
2019-Nov-13 07:00 203 2 gusting 6 4.4
2019-Nov-13 06:55 206 1 gusting 4 4.4
2019-Nov-13 06:50 198 0 gusting 3 4.4
2019-Nov-13 06:45 201 0 gusting 3 4.4
2019-Nov-13 06:40 189 1 gusting 5 4.4
2019-Nov-13 06:35 181 2 gusting 5 4.4
2019-Nov-13 06:30 175 2 gusting 3 4.4
2019-Nov-13 06:25 170 2 gusting 5 4.4
2019-Nov-13 06:20 171 2 gusting 5 4.4
2019-Nov-13 06:15 175 2 gusting 4 3.9
2019-Nov-13 06:10 177 3 gusting 5 3.9
2019-Nov-13 06:05 179 2 gusting 5 3.9
2019-Nov-13 06:00 183 2 gusting 4 3.9
2019-Nov-13 05:55 187 2 gusting 5 3.9
2019-Nov-13 05:50 185 2 gusting 5 3.9
2019-Nov-13 05:45 184 2 gusting 5 3.3
2019-Nov-13 05:40 188 2 gusting 5 3.3
2019-Nov-13 05:35 198 2 gusting 5 3.3
2019-Nov-13 05:30 195 2 gusting 5 3.3
2019-Nov-13 05:25 182 2 gusting 5 3.3
2019-Nov-13 05:20 178 1 gusting 3 3.3
2019-Nov-13 05:15 3.3
2019-Nov-13 05:10 3.3
2019-Nov-13 05:05 178 0 gusting 1 3.3
2019-Nov-13 05:00 178 0 gusting 1 3.3
2019-Nov-13 04:55 178 0 gusting 1 3.3
2019-Nov-13 04:50 178 1 gusting 2 3.3
2019-Nov-13 04:45 179 1 gusting 3 2.8
2019-Nov-13 04:40 175 1 gusting 3 2.8
2019-Nov-13 04:35 166 1 gusting 3 2.8
2019-Nov-13 04:30 160 1 gusting 2 2.8
2019-Nov-13 04:25 162 1 gusting 3 2.8
2019-Nov-13 04:20 190 1 gusting 3 3.3
2019-Nov-13 04:15 217 1 gusting 2 3.3
2019-Nov-13 04:10 3.3
2019-Nov-13 04:05 236 0 gusting 2 3.3
2019-Nov-13 04:00 237 0 gusting 2 3.3
2019-Nov-13 03:55 236 1 gusting 2 3.3
2019-Nov-13 03:50 236 0 gusting 2 3.3
2019-Nov-13 03:45 235 0 gusting 2 3.3
2019-Nov-13 03:40 236 0 gusting 3 3.3
2019-Nov-13 03:35 247 0 gusting 3 3.3
2019-Nov-13 03:30 254 1 gusting 3 3.9
2019-Nov-13 03:25 254 0 gusting 2 3.9
2019-Nov-13 03:20 250 0 gusting 3 3.9
2019-Nov-13 03:15 237 0 gusting 3 3.9
2019-Nov-13 03:10 236 0 gusting 2 4.4
2019-Nov-13 03:05 246 1 gusting 3 4.4
2019-Nov-13 03:00 256 2 gusting 5 4.4
2019-Nov-13 02:55 259 1 gusting 5 4.4
2019-Nov-13 02:50 245 2 gusting 5 3.9
2019-Nov-13 02:45 235 2 gusting 6 3.9
2019-Nov-13 02:40 231 2 gusting 6 3.9
2019-Nov-13 02:35 233 2 gusting 6 3.9
2019-Nov-13 02:30 233 1 gusting 6 3.3
2019-Nov-13 02:25 229 1 gusting 4 3.3
2019-Nov-13 02:20 217 1 gusting 4 2.8
2019-Nov-13 02:15 208 1 gusting 3 2.8
2019-Nov-13 02:10 209 0 gusting 3 2.8
2019-Nov-13 02:05 2.8
2019-Nov-13 02:00 2.8
2019-Nov-13 01:55 2.8
2019-Nov-13 01:50 209 0 gusting 1 2.8
2019-Nov-13 01:45 209 1 gusting 2 3.3
2019-Nov-13 01:40 209 0 gusting 2 3.3
2019-Nov-13 01:35 3.3
2019-Nov-13 01:30 3.3
2019-Nov-13 01:25 3.3
2019-Nov-13 01:19 210 0 gusting 1 3.3
2019-Nov-13 01:15 209 1 gusting 2 3.3
2019-Nov-13 01:10 213 1 gusting 2 3.9
2019-Nov-13 01:04 220 1 gusting 2 3.9
2019-Nov-13 01:00 222 0 gusting 2 3.9
2019-Nov-13 00:55 3.9
2019-Nov-13 00:50 224 0 gusting 2 3.9
2019-Nov-13 00:45 224 1 gusting 2 3.9
2019-Nov-13 00:40 234 1 gusting 3 3.9
2019-Nov-13 00:35 245 0 gusting 3 3.9
2019-Nov-13 00:30 3.9
2019-Nov-13 00:25 3.9
2019-Nov-13 00:19 3.9
2019-Nov-13 00:15 3.9
2019-Nov-13 00:10 4.4
2019-Nov-13 00:05 4.4
2019-Nov-13 00:00 4.4
2019-Nov-12 23:55 4.4
2019-Nov-12 23:50 4.4
2019-Nov-12 23:45 5.0
2019-Nov-12 23:40 5.0
2019-Nov-12 23:35 5.0
2019-Nov-12 23:30 5.0
2019-Nov-12 23:25 256 0 gusting 3 5.0
2019-Nov-12 23:20 260 1 gusting 4 5.0
2019-Nov-12 23:15 264 0 gusting 4 5.6
2019-Nov-12 23:10 273 0 gusting 3 5.6
2019-Nov-12 23:04 282 1 gusting 3 5.6
2019-Nov-12 23:00 284 2 gusting 4 5.6
2019-Nov-12 22:54 283 2 gusting 4 5.6
2019-Nov-12 22:50 277 1 gusting 4 5.6
2019-Nov-12 22:45 271 1 gusting 3 5.6
2019-Nov-12 22:40 275 1 gusting 3 6.1
2019-Nov-12 22:34 282 1 gusting 3 6.1
2019-Nov-12 22:30 292 1 gusting 3 6.1
2019-Nov-12 22:25 297 1 gusting 3 6.7
2019-Nov-12 22:20 301 1 gusting 2 6.7
2019-Nov-12 22:15 302 0 gusting 2 6.7
2019-Nov-12 22:09 6.7
2019-Nov-12 22:05 6.7
2019-Nov-12 22:00 315 0 gusting 3 7.2
2019-Nov-12 21:55 313 1 gusting 3 7.2
2019-Nov-12 21:49 305 1 gusting 4 7.2
2019-Nov-12 21:45 297 2 gusting 4 7.2
2019-Nov-12 21:40 294 2 gusting 6 7.2
2019-Nov-12 21:35 290 2 gusting 6 7.8
2019-Nov-12 21:30 287 3 gusting 6 7.8
2019-Nov-12 21:24 291 4 gusting 6 7.8
2019-Nov-12 21:19 295 4 gusting 8 7.8
2019-Nov-12 21:15 297 4 gusting 8 7.8
2019-Nov-12 21:09 297 4 gusting 8 7.8
2019-Nov-12 21:05 299 4 gusting 8 7.8
2019-Nov-12 21:00 299 3 gusting 7 7.8
2019-Nov-12 20:54 301 3 gusting 7 7.8
2019-Nov-12 20:49 309 3 gusting 6 7.8
2019-Nov-12 20:45 313 4 gusting 7 7.8
2019-Nov-12 20:40 317 5 gusting 8 7.8
2019-Nov-12 20:34 315 4 gusting 8 7.8
2019-Nov-12 20:30 309 3 gusting 7 7.8
2019-Nov-12 20:24 311 2 gusting 6 7.8
2019-Nov-12 20:19 315 3 gusting 10 7.8
2019-Nov-12 20:15 319 4 gusting 10 7.8
2019-Nov-12 20:09 317 3 gusting 8 7.8
2019-Nov-12 20:04 310 4 gusting 8 7.8
2019-Nov-12 20:00 311 5 gusting 10 7.8
2019-Nov-12 19:55 312 5 gusting 10 7.8
2019-Nov-12 19:49 315 5 gusting 12 7.8
2019-Nov-12 19:45 315 5 gusting 12 7.8
2019-Nov-12 19:39 315 6 gusting 11 7.8
2019-Nov-12 19:34 316 6 gusting 12 8.3
2019-Nov-12 19:30 313 6 gusting 13 8.3
2019-Nov-12 19:24 312 6 gusting 13 8.3
2019-Nov-12 19:19 308 6 gusting 13 8.3
2019-Nov-12 19:15 307 6 gusting 13 8.3
2019-Nov-12 19:09 309 7 gusting 12 8.3
2019-Nov-12 19:04 305 8 gusting 13 8.3
2019-Nov-12 19:00 303 8 gusting 13 8.3
2019-Nov-12 18:54 308 8 gusting 14 8.3
2019-Nov-12 18:49 311 8 gusting 17 8.3
2019-Nov-12 18:45 309 9 gusting 17 8.3
2019-Nov-12 18:39 308 9 gusting 17 8.3
2019-Nov-12 18:34 309 7 gusting 13 8.3
2019-Nov-12 18:30 307 8 gusting 15 8.3
2019-Nov-12 18:24 303 8 gusting 15 8.3
2019-Nov-12 18:19 307 7 gusting 13 8.3
2019-Nov-12 18:15 311 7 gusting 13 8.3
2019-Nov-12 18:09 309 7 gusting 13 8.3
2019-Nov-12 18:04 307 6 gusting 14 8.3
2019-Nov-12 18:00 307 6 gusting 14 8.3
2019-Nov-12 17:54 306 7 gusting 12 8.3
2019-Nov-12 17:49 307 8 gusting 14 8.3
2019-Nov-12 17:45 307 8 gusting 14 8.3
2019-Nov-12 17:39 304 7 gusting 14 8.3
2019-Nov-12 17:34 305 7 gusting 13 8.3
2019-Nov-12 17:30 304 7 gusting 13 8.3
2019-Nov-12 17:24 302 6 gusting 13 8.3
2019-Nov-12 17:19 304 6 gusting 12 8.3
2019-Nov-12 17:15 305 7 gusting 15 8.3
2019-Nov-12 17:09 303 7 gusting 15 8.3
2019-Nov-12 17:04 304 7 gusting 13 8.3
2019-Nov-12 17:00 306 7 gusting 14 8.3
2019-Nov-12 16:54 303 8 gusting 14 8.3
2019-Nov-12 16:49 298 8 gusting 15 8.3
2019-Nov-12 16:45 297 7 gusting 15 8.3
2019-Nov-12 16:39 300 6 gusting 13 8.3
2019-Nov-12 16:34 305 7 gusting 13 8.3
2019-Nov-12 16:30 306 8 gusting 13 8.3
2019-Nov-12 16:24 308 8 gusting 13 8.3
2019-Nov-12 16:19 308 8 gusting 15 8.3
2019-Nov-12 16:15 307 7 gusting 15 8.3
2019-Nov-12 16:09 306 8 gusting 16 8.3
2019-Nov-12 16:04 304 9 gusting 16 8.3
2019-Nov-12 16:00 307 8 gusting 15 8.3